Find Starlink 31151

NORAD ID: 58742 Int'l Des: 2024-005 Owner: SPXS Country: US Constellation: starlink operational
LEOCIRCULAR

Live Position

Loading 3D Globe...

About Starlink 31151

Description loading...

Upcoming Passes

Passes for default location (London). Set your location on the main map for personalized predictions.

Altitude History

Loading altitude history...

Two-Line Element Set

1 58742U 24005Q 26122.42468682 .00001413 00000-0 60877-4 0 9991
2 58742 43.0039 276.1299 0001960 267.0238 93.0389 15.27574108128752
Epoch: May 2, 2026 • Age: 9 hours

Current Status

Altitude 494.3 km
Velocity 7.62 km/s
Sub-Earth Point -41.26°S, 54.73°E
Launch Date Jan 7, 2024
Age 2.3 years
Type internet

Technical Details

Classification Payload
Mass 730.00 kg
Dry Mass 700.00 kg
Total Mass 730.00 kg
Length 0.30 m
Diameter 4.10 m
Span 29.00 m
Shape Box + pan
Manufacturer SPXS
Bus Type Starlink V2M
Phase Status In Orbit
Owner/State SPXS/US

Most Searched